Time,TemperatureF,DewpointF,PressureIn,WindDirection,WindDirectionDegrees,WindSpeedMPH,WindSpeedGustMPH,Humidity,HourlyPrecipIn,Conditions,Clouds,dailyrainin,SoftwareType,DateUTC
2013-04-08 00:29:00,43.7,34.9,29.83,NE,45,9.0,17.0,71,0.00,,FEW,0.00,WeatherDisplay:10.37,2013-04-07 23:29:00,
2013-04-08 00:59:00,43.5,34.7,29.83,NE,45,8.0,15.0,71,0.00,,FEW,0.00,WeatherDisplay:10.37,2013-04-07 23:59:00,
2013-04-08 01:59:00,43.2,34.4,29.81,NE,45,6.0,16.0,71,0.00,,FEW,0.00,WeatherDisplay:10.37,2013-04-08 00:59:00,
2013-04-08 02:29:00,42.6,34.2,29.80,NE,45,7.0,13.0,72,0.00,,FEW,0.00,WeatherDisplay:10.37,2013-04-08 01:29:00,
2013-04-08 03:29:00,42.8,29.9,29.77,NE,45,14.0,23.0,60,0.00,,FEW,0.00,WeatherDisplay:10.37,2013-04-08 02:29:00,
2013-04-08 04:29:00,42.4,30.7,29.76,NE,45,12.0,22.0,63,0.00,,FEW,0.00,WeatherDisplay:10.37,2013-04-08 03:29:00,
2013-04-08 04:59:00,42.4,32.6,29.75,NE,45,8.0,18.0,68,0.00,,FEW,0.00,WeatherDisplay:10.37,2013-04-08 03:59:00,
2013-04-08 05:29:00,42.3,32.1,29.75,NE,45,9.0,16.0,67,0.00,,FEW,0.00,WeatherDisplay:10.37,2013-04-08 04:29:00,
2013-04-08 05:59:00,42.3,29.4,29.74,NE,45,12.0,21.0,60,0.00,,FEW,0.00,WeatherDisplay:10.37,2013-04-08 04:59:00,
2013-04-08 07:00:00,42.4,30.7,29.74,NE,45,6.0,20.0,63,0.00,,FEW,0.00,WeatherDisplay:10.37,2013-04-08 06:00:00,
2013-04-08 07:29:00,42.4,31.9,29.73,NE,45,8.0,17.0,66,0.00,,FEW,0.00,WeatherDisplay:10.37,2013-04-08 06:29:00,
2013-04-08 07:59:00,42.1,32.3,29.73,NE,45,2.0,21.0,68,0.00,,FEW,0.00,WeatherDisplay:10.37,2013-04-08 06:59:00,
2013-04-08 08:29:00,42.4,32.6,29.72,NE,45,9.0,17.0,68,0.00,,FEW,0.00,WeatherDisplay:10.37,2013-04-08 07:29:00,
2013-04-08 08:59:00,42.6,32.4,29.72,NE,45,8.0,20.0,67,0.00,,FEW,0.00,WeatherDisplay:10.37,2013-04-08 07:59:00,
2013-04-08 09:29:00,42.6,32.8,29.72,NE,45,6.0,17.0,68,0.00,,FEW,0.00,WeatherDisplay:10.37,2013-04-08 08:29:00,
2013-04-08 09:59:00,42.6,32.4,29.72,NE,45,7.0,18.0,67,0.00,,FEW,0.00,WeatherDisplay:10.37,2013-04-08 08:59:00,
2013-04-08 10:29:00,42.8,32.2,29.72,NE,45,5.0,20.0,66,0.00,,FEW,0.00,WeatherDisplay:10.37,2013-04-08 09:29:00,
2013-04-08 10:59:00,42.4,31.9,29.71,NE,45,8.0,17.0,66,0.00,,FEW,0.00,WeatherDisplay:10.37,2013-04-08 09:59:00,
2013-04-08 11:59:00,43.9,32.1,29.70,NE,45,6.0,23.0,63,0.00,,FEW,0.00,WeatherDisplay:10.37,2013-04-08 10:59:00,
2013-04-08 12:29:00,44.4,31.4,29.69,NE,45,7.0,21.0,60,0.00,,FEW,0.00,WeatherDisplay:10.37,2013-04-08 11:29:00,
2013-04-08 12:59:00,45.9,31.9,29.68,NE,45,5.0,24.0,58,0.00,,FEW,0.00,WeatherDisplay:10.37,2013-04-08 11:59:00,
2013-04-08 13:29:00,45.9,31.5,29.67,NE,45,3.0,27.0,57,0.00,,FEW,0.00,WeatherDisplay:10.37,2013-04-08 12:29:00,
2013-04-08 13:59:00,45.3,31.8,29.67,NE,45,1.0,21.0,59,0.00,,FEW,0.00,WeatherDisplay:10.37,2013-04-08 12:59:00,
2013-04-08 14:28:00,46.4,32.8,29.66,NE,45,0.0,21.0,59,0.00,,FEW,0.00,WeatherDisplay:10.37,2013-04-08 13:28:00,
2013-04-08 15:00:00,45.5,31.6,29.65,NE,45,2.0,21.0,58,0.00,,FEW,0.00,WeatherDisplay:10.37,2013-04-08 14:00:00,
2013-04-08 15:29:00,46.0,32.9,29.64,NE,45,0.0,20.0,60,0.00,,FEW,0.00,WeatherDisplay:10.37,2013-04-08 14:29:00,
2013-04-08 15:59:00,47.7,33.2,29.63,NE,45,1.0,20.0,57,0.00,,FEW,0.00,WeatherDisplay:10.37,2013-04-08 14:59:00,
2013-04-08 16:29:00,48.0,33.1,29.61,NE,45,3.0,24.0,56,0.00,,FEW,0.00,WeatherDisplay:10.37,2013-04-08 15:29:00,
2013-04-08 16:59:00,46.4,32.4,29.60,NE,45,1.0,15.0,58,0.00,,FEW,0.00,WeatherDisplay:10.37,2013-04-08 15:59:00,
2013-04-08 17:29:00,45.9,32.7,29.60,NE,45,0.0,15.0,60,0.00,,FEW,0.00,WeatherDisplay:10.37,2013-04-08 16:29:00,
2013-04-08 17:59:00,46.6,33.4,29.59,NE,45,0.0,20.0,60,0.00,,FEW,0.00,WeatherDisplay:10.37,2013-04-08 16:59:00,
2013-04-08 18:59:00,45.1,33.7,29.57,NE,45,2.0,17.0,64,0.00,,FEW,0.00,WeatherDisplay:10.37,2013-04-08 17:59:00,
2013-04-08 19:59:00,44.6,33.6,29.56,NE,45,2.0,16.0,65,0.00,,FEW,0.00,WeatherDisplay:10.37,2013-04-08 18:59:00,
2013-04-08 20:29:00,44.8,33.3,29.56,NE,45,2.0,22.0,64,0.00,,FEW,0.00,WeatherDisplay:10.37,2013-04-08 19:29:00,
2013-04-08 20:59:00,44.4,33.4,29.55,NE,45,2.0,20.0,65,0.00,,FEW,0.00,WeatherDisplay:10.37,2013-04-08 19:59:00,
2013-04-08 21:29:00,44.1,33.0,29.55,NE,45,5.0,20.0,65,0.00,,FEW,0.00,WeatherDisplay:10.37,2013-04-08 20:29:00,
2013-04-08 21:59:00,43.8,33.2,29.55,NE,45,3.0,21.0,66,0.00,,FEW,0.00,WeatherDisplay:10.37,2013-04-08 20:59:00,
2013-04-08 22:29:00,43.7,33.1,29.54,NE,45,9.0,22.0,66,0.00,,FEW,0.00,WeatherDisplay:10.37,2013-04-08 21:29:00,
2013-04-08 23:00:00,43.5,32.5,29.54,NE,45,9.0,29.0,65,0.00,,FEW,0.00,WeatherDisplay:10.37,2013-04-08 22:00:00,
2013-04-08 23:30:00,43.2,32.6,29.53,NE,45,12.0,24.0,66,0.00,,FEW,0.00,WeatherDisplay:10.37,2013-04-08 22:30:00,